Weather in Gamprin

Liechtenstein     47°13′06″N   9°30′38″E
temp.,
°C
wind,
m/s
gust,
m/s
humid.,
%
clouds,
%
prec.,
mm/h
press.,
hPa
HPBL,
m
19 january, wed
wed1901:00−4ssw23826 0.0 103542
04:00−4ssw34814 0.0 103351
07:00−4ssw34783 0.0 103264
10:000ssw24700 0.0 103096
13:00+5wsw11630 0.0 1026255
16:00+2nw11911 0.0 102610
19:00−3sw22959 0.0 102829
22:00−3sw229589 0.0 102945
20 january, thu
thu2001:00−2n1198100 0.4 102978
04:00−4wsw119894 0.1 102815
07:00−2w1297100 0.9 1028109
10:00−1nw1292100 0.7 1028264
13:000nnw2293100 1.9 1028447
16:00−1nnw2393100 1.1 1028397
19:00−4nw119999 1.6 103033
22:00−6nne2495100 2.1 1033257
21 january, fri
fri2101:00−7sw119793 2.2 103427
04:00−9sw119679 0.0 103413
07:00−8sw1197100 0.1 103520
10:00−6se018974 0.1 1035234
13:00−3n12705 0.1 1033635
16:00−4n12815 0.0 103392
19:00−9ssw229414 0.0 103620
22:00−9ssw339015 0.0 103857
22 january, sat
sat2201:00−10s348640 0.0 103882
04:00−9s358138 0.0 103897
07:00−10s358195 0.0 103880
10:00−5s3473100 0.0 1036143
13:00−1sw1384100 0.1 1034366
16:00−1w1299100 2.5 1033135
19:00−1w1199100 7.3 103437
22:00−1wnw0099100 4.3 103531
23 january, sun
sun2301:00−2s1198100 5.1 103427
04:00−2sse1198100 0.0 103321
07:00−2sse119790 0.1 103314
10:00−1ese118839 0.0 1033212
13:000ne119227 0.0 1032319
16:00−1nne1298100 0.0 1032262
19:00−1ssw009999 0.1 1033103
22:00−1ne019995 0.0 103486